GW4984 Weather Reports


time (UTC)temp
C
wind
direction
speed
KPH
gust
KPH
rain 1hr
cm
rain 24hr
cm
rain mn
cm
humidity
%
barometer
mb
20260506015853 10 329 6.4 9.7 0.00 0.00 0.00 74 1012.5
20260506015350 10 56 3.2 4.8 0.00 0.00 0.00 75 1012.2
20260506014847 10 66 4.8 6.4 0.00 0.00 0.00 75 1012.0
20260506014344 10 108 4.8 11.3 0.00 0.00 0.00 75 1012.0
20260506013840 10 31 3.2 3.2 0.00 0.00 0.00 75 1012.0
20260506013338 10 58 8.0 11.3 0.00 0.00 0.00 75 1011.5
20260506012834 10 44 3.2 4.8 0.00 0.00 0.00 76 1011.7
20260506012332 10 61 1.6 3.2 0.00 0.00 0.00 76 1011.4
20260506011829 10 19 0.0 0.0 0.00 0.00 0.00 75 1011.3
20260506011325 10 36 6.4 6.4 0.00 0.00 0.00 75 1011.4
20260506010823 10 25 1.6 3.2 0.00 0.00 0.00 75 1011.2
20260506010320 10 148 6.4 9.7 0.00 0.00 0.00 75 1011.3
20260506005817 10 29 4.8 9.7 0.00 0.00 0.00 75 1011.4
20260506005314 10 104 4.8 6.4 0.00 0.00 0.00 74 1011.2
20260506004810 10 133 1.6 4.8 0.00 0.00 0.00 74 1011.5
20260506004308 10 35 4.8 6.4 0.00 0.00 0.00 74 1011.4
20260506003803 10 99 6.4 9.7 0.00 0.00 0.00 75 1011.1
20260506003300 10 138 3.2 4.8 0.00 0.00 0.00 75 1011.2
20260506002756 11 93 3.2 4.8 0.00 0.00 0.00 74 1011.2
20260506002253 11 25 11.3 16.1 0.00 0.00 0.00 74 1011.0
20260506001749 11 338 3.2 4.8 0.00 0.00 0.00 74 1011.0
20260506001246 11 110 6.4 9.7 0.00 0.00 0.00 74 1010.7
20260506000743 11 42 6.4 9.7 0.00 0.00 0.00 73 1010.8
20260506000241 11 20 9.7 12.9 0.00 0.00 0.00 73 1011.1
20260505235737 11 1 1.6 3.2 0.00 0.00 0.00 73 1011.0
20260505235235 11 48 3.2 4.8 0.00 0.00 0.00 73 1011.0
20260505234732 11 108 6.4 9.7 0.00 0.00 0.00 72 1011.3
20260505234229 11 24 6.4 11.3 0.00 0.00 0.00 72 1011.0
20260505233726 11 47 8.0 9.7 0.00 0.00 0.00 71 1010.6
20260505233224 11 128 9.7 14.5 0.00 0.00 0.00 70 1010.7
20260505232721 11 13 4.8 9.7 0.00 0.00 0.00 70 1010.7
20260505232218 11 157 9.7 12.9 0.00 0.00 0.00 70 1010.8
20260505231715 11 27 1.6 3.2 0.00 0.00 0.00 70 1010.5
20260505231214 11 91 6.4 9.7 0.00 0.00 0.00 70 1010.4
20260505230711 11 87 3.2 4.8 0.00 0.00 0.00 70 1010.7
20260505230208 11 94 3.2 4.8 0.00 0.00 0.00 70 1010.2
20260505225704 11 33 8.0 11.3 0.00 0.00 0.00 69 1010.3
20260505225201 11 85 1.6 3.2 0.00 0.00 0.00 70 1010.2
20260505224656 11 58 6.4 9.7 0.00 0.00 0.00 70 1010.0
20260505224155 11 122 6.4 6.4 0.00 0.00 0.00 70 1010.0
20260505223652 11 34 6.4 12.9 0.00 0.00 0.00 70 1009.8
20260505223147 11 7 11.3 17.7 0.00 0.00 0.00 69 1010.0
20260505222644 11 62 6.4 16.1 0.00 0.00 0.00 69 1009.9
20260505222140 12 352 12.9 16.1 0.00 0.00 0.00 69 1009.8
20260505221637 12 100 4.8 9.7 0.00 0.00 0.00 68 1009.3
20260505221134 12 29 1.6 1.6 0.00 0.00 0.00 68 1009.1
20260505220632 12 8 6.4 9.7 0.00 0.00 0.00 67 1009.3
20260505220129 12 54 6.4 9.7 0.00 0.00 0.00 68 1009.7
20260505215627 12 33 4.8 6.4 0.00 0.00 0.00 68 1009.8
20260505215125 12 6 6.4 9.7 0.00 0.00 0.00 69 1009.7
20260505214622 12 114 6.4 11.3 0.00 0.00 0.00 69 1009.5
20260505214119 12 45 12.9 22.5 0.00 0.00 0.00 69 1009.4
20260505213617 12 129 8.0 11.3 0.00 0.00 0.00 70 1009.5
20260505213113 12 16 9.7 14.5 0.00 0.00 0.00 70 1009.5
20260505212609 12 288 4.8 6.4 0.00 0.00 0.00 70 1009.5
20260505212107 12 35 9.7 16.1 0.00 0.00 0.00 70 1009.4
20260505211604 12 79 6.4 6.4 0.00 0.00 0.00 71 1009.5
20260505211101 12 136 14.5 20.9 0.00 0.00 0.00 71 1009.2
20260505210557 12 22 6.4 12.9 0.00 0.00 0.00 71 1009.3
20260505210055 12 147 6.4 12.9 0.00 0.00 0.00 71 1009.1
20260505205552 12 43 4.8 6.4 0.00 0.00 0.00 72 1009.1
20260505205050 12 72 8.0 12.9 0.00 0.00 0.00 71 1009.1
20260505204547 12 71 3.2 6.4 0.00 0.00 0.00 72 1009.4
20260505204044 12 79 17.7 25.7 0.00 0.00 0.00 73 1009.5
20260505203540 12 47 9.7 12.9 0.00 0.00 0.00 73 1009.4
20260505203038 12 353 3.2 6.4 0.00 0.00 0.00 72 1009.4
20260505202533 12 93 8.0 12.9 0.00 0.00 0.00 73 1009.1
20260505202029 12 100 4.8 11.3 0.00 0.00 0.00 73 1009.2
20260505201527 12 79 6.4 9.7 0.00 0.00 0.00 74 1009.0
20260505201024 12 49 3.2 6.4 0.00 0.00 0.00 74 1009.0
20260505200522 12 11 4.8 4.8 0.00 0.00 0.00 74 1009.0
20260505200019 12 28 8.0 11.3 0.00 0.00 0.00 75 1009.1
20260505195515 12 64 8.0 11.3 0.00 0.00 0.00 76 1009.1
20260505195012 12 96 9.7 16.1 0.00 0.00 0.00 76 1009.0
20260505194510 12 38 11.3 16.1 0.00 0.00 0.00 75 1009.0
20260505194010 12 26 6.4 11.3 0.00 0.00 0.00 75 1009.4
20260505193508 12 68 14.5 17.7 0.00 0.00 0.00 75 1009.1
20260505193005 12 58 1.6 3.2 0.00 0.00 0.00 75 1009.1
20260505192504 12 55 3.2 6.4 0.00 0.00 0.00 75 1008.9
20260505192001 12 23 6.4 11.3 0.00 0.00 0.00 75 1008.6
20260505191459 12 59 6.4 9.7 0.00 0.00 0.00 75 1008.5
20260505190956 12 138 9.7 14.5 0.00 0.00 0.00 75 1008.6
20260505190450 12 62 6.4 14.5 0.00 0.00 0.00 75 1008.7
20260505185946 13 60 4.8 9.7 0.00 0.00 0.00 76 1008.5
20260505185444 12 9 3.2 4.8 0.00 0.00 0.00 77 1008.6
20260505184940 12 158 9.7 12.9 0.00 0.00 0.00 78 1008.4
20260505184437 12 145 4.8 12.9 0.00 0.00 0.00 78 1008.4
20260505183933 12 59 9.7 12.9 0.00 0.00 0.00 78 1008.4
20260505183430 12 25 8.0 11.3 0.00 0.00 0.00 79 1008.4
20260505182927 12 55 12.9 22.5 0.00 0.00 0.00 79 1008.3
20260505182424 12 17 6.4 9.7 0.00 0.00 0.00 79 1008.3
20260505181920 12 141 9.7 11.3 0.00 0.00 0.00 80 1008.2
20260505181418 12 25 9.7 12.9 0.00 0.00 0.00 80 1008.6
20260505180914 12 68 6.4 11.3 0.00 0.00 0.00 81 1008.8
20260505180411 12 41 11.3 16.1 0.00 0.00 0.00 81 1008.6
20260505175907 12 35 3.2 3.2 0.00 0.00 0.00 81 1008.4
20260505175403 12 5 1.6 1.6 0.00 0.00 0.00 82 1008.0
20260505174900 12 19 3.2 4.8 0.00 0.00 0.00 82 1008.1
20260505174358 12 52 6.4 11.3 0.00 0.00 0.00 82 1007.6
20260505173853 12 39 3.2 4.8 0.00 0.00 0.00 83 1007.8
20260505173350 12 48 4.8 6.4 0.00 0.00 0.00 83 1008.0
20260505172847 13 72 11.3 14.5 0.00 0.00 0.00 83 1007.6
20260505172345 13 67 6.4 12.9 0.00 0.00 0.00 83 1007.9
20260505171844 13 34 4.8 4.8 0.00 0.00 0.00 83 1007.8
20260505171341 13 48 1.6 1.6 0.00 0.00 0.00 83 1007.8
20260505170838 13 51 3.2 3.2 0.00 0.00 0.00 84 1007.9
20260505170335 13 61 6.4 9.7 0.00 0.00 0.00 83 1007.4
20260505165830 13 55 6.4 11.3 0.00 0.00 0.00 84 1007.3
20260505165326 13 114 4.8 6.4 0.00 0.00 0.00 84 1007.3
20260505164822 13 117 14.5 17.7 0.00 0.00 0.00 84 1007.2
20260505164319 13 46 6.4 9.7 0.00 0.00 0.00 84 1007.3
20260505163818 13 132 9.7 14.5 0.00 0.00 0.00 84 1007.2
20260505163316 13 48 6.4 9.7 0.00 0.00 0.00 85 1006.9
20260505162813 13 59 9.7 14.5 0.00 0.00 0.00 85 1006.6
20260505162309 13 31 14.5 20.9 0.00 0.00 0.00 84 1006.8
20260505161807 13 19 6.4 11.3 0.00 0.00 0.00 84 1007.1
20260505161304 13 67 6.4 6.4 0.00 0.00 0.00 84 1007.0
20260505160801 13 48 9.7 12.9 0.00 0.00 0.00 84 1007.0
20260505160259 13 69 6.4 12.9 0.00 0.00 0.00 84 1006.6
20260505153238 15 53 3.2 4.8 0.00 0.00 0.00 84 1006.3
20260505152736 15 81 3.2 3.2 0.00 0.00 0.00 84 1006.0
20260505152232 15 95 8.0 11.3 0.00 0.00 0.00 84 1005.8
20260505151731 15 27 8.0 9.7 0.00 0.00 0.00 84 1006.1
20260505151229 16 69 8.0 12.9 0.00 0.00 0.00 84 1006.0
20260505150726 16 18 6.4 12.9 0.00 0.00 0.00 82 1005.7
20260505150224 17 32 1.6 1.6 0.00 0.00 0.00 82 1005.8
20260505140154 20 57 4.8 4.8 0.00 0.00 0.00 80 1004.9
20260505124601 18 148 6.4 9.7 0.00 0.00 0.00 82 1005.0
20260505124057 18 113 8.0 11.3 0.00 0.00 0.00 82 1005.0
20260505123553 18 178 8.0 11.3 0.00 0.00 0.00 82 1004.8
20260505123050 18 137 11.3 20.9 0.00 0.00 0.00 82 1004.9
20260505122547 18 108 4.8 6.4 0.00 0.00 0.00 82 1004.8
20260505122044 18 123 9.7 12.9 0.00 0.00 0.00 83 1004.5
20260505121540 18 158 8.0 11.3 0.00 0.00 0.00 83 1004.6
20260505121037 18 106 1.6 3.2 0.00 0.00 0.00 83 1004.6
20260505120534 18 53 4.8 6.4 0.00 0.00 0.00 83 1004.5
20260505120029 18 57 4.8 6.4 0.00 0.00 0.00 83 1004.5
20260505115524 18 97 3.2 4.8 0.00 0.00 0.00 83 1004.7
20260505115022 18 51 4.8 11.3 0.00 0.00 0.00 83 1004.7
20260505114519 18 44 6.4 11.3 0.00 0.00 0.00 83 1004.5
20260505114015 18 22 3.2 4.8 0.00 0.00 0.00 83 1004.5
20260505113512 18 16 3.2 3.2 0.00 0.00 0.00 83 1004.2
20260505113009 18 71 6.4 9.7 0.00 0.00 0.00 83 1004.3
20260505112505 18 38 4.8 9.7 0.00 0.00 0.00 83 1004.5
20260505112003 18 55 1.6 3.2 0.00 0.00 0.00 83 1004.5
20260505111501 18 72 6.4 9.7 0.00 0.00 0.00 83 1004.5
20260505110958 18 66 1.6 3.2 0.00 0.00 0.00 82 1004.4
20260505110455 18 79 6.4 9.7 0.00 0.00 0.00 83 1004.2
20260505101927 18 110 8.0 9.7 0.00 0.00 0.00 84 1003.7
20260505101426 18 80 6.4 9.7 0.00 0.00 0.00 84 1003.6
20260505100922 18 35 3.2 9.7 0.00 0.00 0.00 84 1003.5
20260505100419 18 22 1.6 1.6 0.00 0.00 0.00 84 1003.3
20260505095915 18 72 3.2 4.8 0.00 0.00 0.00 83 1003.5
20260505095412 18 75 8.0 9.7 0.00 0.00 0.00 83 1003.3
20260505094908 18 64 4.8 6.4 0.00 0.00 0.00 83 1003.4
20260505094406 18 90 6.4 9.7 0.00 0.00 0.00 83 1003.4
20260505093901 18 116 3.2 4.8 0.00 0.00 0.00 82 1003.4
20260505093358 18 151 3.2 6.4 0.00 0.00 0.00 82 1003.2
20260505052707 21 320 1.6 1.6 0.00 0.00 0.00 71 1003.9
20260505052204 21 320 1.6 1.6 0.00 0.00 0.00 71 1003.9
20260505051701 21 327 3.2 3.2 0.00 0.00 0.00 70 1004.1
20260505051159 21 289 3.2 4.8 0.00 0.00 0.00 70 1004.1
20260505050657 21 62 1.6 3.2 0.00 0.00 0.00 69 1003.8
20260505050155 21 6 0.0 0.0 0.00 0.00 0.00 69 1003.8
20260505041630 21 175 4.8 6.4 0.00 0.00 0.00 67 1003.8
20260505041128 21 157 3.2 4.8 0.00 0.00 0.00 67 1003.9
20260505040624 21 37 0.0 0.0 0.00 0.00 0.00 66 1004.3
20260505040122 21 14 3.2 4.8 0.00 0.00 0.00 66 1004.1
20260505035618 21 2 1.6 1.6 0.00 0.00 0.00 66 1004.2
20260505035114 21 355 1.6 1.6 0.00 0.00 0.00 65 1004.0
20260505034611 21 146 6.4 6.4 0.00 0.00 0.00 65 1004.3
20260505034108 21 174 3.2 4.8 0.00 0.00 0.00 66 1004.3
20260505033604 21 12 3.2 3.2 0.00 0.00 0.00 66 1004.7
20260505033103 21 117 6.4 9.7 0.00 0.00 0.00 65 1004.5
20260505032601 21 62 3.2 6.4 0.00 0.00 0.00 63 1004.7
20260505032057 21 217 6.4 9.7 0.00 0.00 0.00 62 1004.7
20260505031554 21 109 3.2 3.2 0.00 0.00 0.00 63 1004.8
20260505031050 21 35 8.0 11.3 0.00 0.00 0.00 62 1004.9
20260505030548 21 128 3.2 4.8 0.00 0.00 0.00 62 1004.7
20260505030043 21 115 3.2 3.2 0.00 0.00 0.00 62 1004.9
20260505025539 22 153 1.6 3.2 0.00 0.00 0.00 61 1004.9
20260505025039 22 80 3.2 4.8 0.00 0.00 0.00 61 1005.1
20260505024535 22 167 4.8 6.4 0.00 0.00 0.00 61 1005.1
20260505024032 22 164 8.0 9.7 0.00 0.00 0.00 61 1005.0
20260505023529 22 124 1.6 3.2 0.00 0.00 0.00 61 1005.3
20260505023027 22 68 1.6 1.6 0.00 0.00 0.00 60 1005.4
20260505022524 22 162 4.8 4.8 0.00 0.00 0.00 60 1005.4
20260505022021 22 335 1.6 1.6 0.00 0.00 0.00 60 1005.0
20260505021518 22 151 3.2 3.2 0.00 0.00 0.00 60 1004.9
20260505021015 22 206 4.8 4.8 0.00 0.00 0.00 60 1004.7
20260505020514 22 7 0.0 1.6 0.00 0.00 0.00 60 1005.1